ACA767 CYYZ-KBOS

Flight info

Callsign ACA767
Flight time 1h 4m
Altitude 39000
Route KEPTA3 BMPAH DCT AEVON DCT HANKK DCT PONCT JFUND2
Aircraft A320/M-SDE3FGHIRWY/LB1

Departure

Time 2026-05-06 01:01
Airport Toronto Pearson International Airport (CYYZ)

Arrival

Time 2026-05-06 02:06
Airport Boston Logan International Airport (KBOS)
Time Latitude Longitude Altitude Speed Heading
2026-05-06 00:37 43.67888 -79.61608 569 ft 0 kts 316°
2026-05-06 00:50 43.67876 -79.61592 566 ft 4 kts 314°
2026-05-06 00:50 43.67864 -79.61574 571 ft 4 kts 309°
2026-05-06 00:51 43.67849 -79.61544 567 ft 4 kts 294°
2026-05-06 00:51 43.67844 -79.61512 569 ft 4 kts 242°
2026-05-06 00:51 43.67847 -79.61504 569 ft 0 kts 226°
2026-05-06 00:55 43.67832 -79.61526 569 ft 13 kts 226°
2026-05-06 00:55 43.67767 -79.61619 562 ft 11 kts 226°
2026-05-06 00:55 43.67709 -79.61655 564 ft 9 kts 156°
2026-05-06 00:56 43.67646 -79.61659 562 ft 11 kts 210°
2026-05-06 00:56 43.67591 -79.61718 567 ft 12 kts 220°
2026-05-06 00:56 43.67522 -79.61719 567 ft 10 kts 136°
2026-05-06 00:56 43.67447 -79.61620 565 ft 20 kts 136°
2026-05-06 00:57 43.67341 -79.61481 564 ft 22 kts 136°
2026-05-06 00:57 43.67239 -79.61349 568 ft 14 kts 137°
2026-05-06 00:57 43.67172 -79.61262 564 ft 16 kts 136°
2026-05-06 00:57 43.67163 -79.61132 564 ft 17 kts 46°
2026-05-06 00:58 43.67256 -79.60998 557 ft 21 kts 46°
2026-05-06 00:58 43.67359 -79.60849 557 ft 23 kts 46°
2026-05-06 00:58 43.67469 -79.60690 559 ft 23 kts 46°
2026-05-06 00:58 43.67580 -79.60529 563 ft 19 kts 46°
2026-05-06 00:59 43.67675 -79.60392 568 ft 21 kts 46°
2026-05-06 00:59 43.67780 -79.60238 563 ft 23 kts 49°
2026-05-06 00:59 43.67886 -79.60083 563 ft 19 kts 46°
2026-05-06 00:59 43.67969 -79.59961 559 ft 14 kts 48°
2026-05-06 01:00 43.67949 -79.59855 559 ft 12 kts 136°
2026-05-06 01:00 43.67897 -79.59787 560 ft 9 kts 137°
2026-05-06 01:00 43.67852 -79.59804 565 ft 0 kts 226°
2026-05-06 01:01 43.67702 -79.60022 564 ft 70 kts 226°
2026-05-06 01:01 43.67207 -79.60740 564 ft 134 kts 226°
2026-05-06 01:01 43.66450 -79.61835 659 ft 173 kts 227°
2026-05-06 01:01 43.65616 -79.63035 1350 ft 174 kts 227°
2026-05-06 01:02 43.64756 -79.64227 2108 ft 177 kts 225°
2026-05-06 01:02 43.63843 -79.65471 2605 ft 194 kts 226°
2026-05-06 01:02 43.62841 -79.66842 2831 ft 212 kts 226°
2026-05-06 01:02 43.61746 -79.68343 3442 ft 232 kts 226°
2026-05-06 01:03 43.60567 -79.69928 4182 ft 241 kts 226°
2026-05-06 01:03 43.59299 -79.71578 4809 ft 258 kts 226°
2026-05-06 01:03 43.57974 -79.73256 5820 ft 258 kts 226°
2026-05-06 01:03 43.56636 -79.74830 6901 ft 256 kts 218°
2026-05-06 01:04 43.54981 -79.75724 8050 ft 262 kts 196°
2026-05-06 01:04 43.53115 -79.75520 9074 ft 282 kts 171°
2026-05-06 01:04 43.51410 -79.73984 9997 ft 310 kts 140°
2026-05-06 01:04 43.50369 -79.71263 10773 ft 337 kts 111°
2026-05-06 01:05 43.49952 -79.67939 11061 ft 367 kts 99°
2026-05-06 01:05 43.49859 -79.64338 11620 ft 381 kts 95°
2026-05-06 01:05 43.49650 -79.60697 12361 ft 383 kts 102°
2026-05-06 01:05 43.49291 -79.57055 13152 ft 385 kts 104°
2026-05-06 01:06 43.48871 -79.53391 13902 ft 388 kts 105°
2026-05-06 01:06 43.48424 -79.49718 14570 ft 392 kts 106°
2026-05-06 01:06 43.47968 -79.45994 15238 ft 396 kts 106°
2026-05-06 01:06 43.47521 -79.42244 15869 ft 400 kts 105°
2026-05-06 01:07 43.47080 -79.38450 16552 ft 403 kts 105°
2026-05-06 01:07 43.46646 -79.34625 17226 ft 406 kts 105°
2026-05-06 01:07 43.46213 -79.30770 17896 ft 409 kts 105°
2026-05-06 01:07 43.45776 -79.26884 18504 ft 413 kts 105°
2026-05-06 01:08 43.45330 -79.22957 19058 ft 416 kts 105°
2026-05-06 01:08 43.44879 -79.19004 19610 ft 420 kts 105°
2026-05-06 01:08 43.44405 -79.15022 20155 ft 422 kts 108°
2026-05-06 01:08 43.43610 -79.11151 20697 ft 418 kts 118°
2026-05-06 01:09 43.42490 -79.07471 21239 ft 418 kts 121°
2026-05-06 01:09 43.41346 -79.03820 21776 ft 421 kts 121°
2026-05-06 01:09 43.40186 -79.00113 22342 ft 425 kts 121°
2026-05-06 01:09 43.39014 -78.96355 22903 ft 428 kts 121°
2026-05-06 01:10 43.37837 -78.92575 23433 ft 432 kts 121°
2026-05-06 01:10 43.36649 -78.88758 23874 ft 436 kts 121°
2026-05-06 01:10 43.35449 -78.84910 24299 ft 440 kts 121°
2026-05-06 01:10 43.34238 -78.81033 24720 ft 443 kts 121°
2026-05-06 01:11 43.33013 -78.77128 25125 ft 447 kts 121°
2026-05-06 01:11 43.31778 -78.73193 25524 ft 450 kts 121°
2026-05-06 01:11 43.30532 -78.69229 25919 ft 454 kts 121°
2026-05-06 01:11 43.29278 -78.65240 26303 ft 457 kts 121°
2026-05-06 01:12 43.28017 -78.61225 26691 ft 460 kts 121°
2026-05-06 01:12 43.26749 -78.57183 27064 ft 463 kts 120°
2026-05-06 01:12 43.25471 -78.53127 27434 ft 466 kts 121°
2026-05-06 01:12 43.24176 -78.49041 27782 ft 468 kts 120°
2026-05-06 01:13 43.22869 -78.44925 28156 ft 471 kts 120°
2026-05-06 01:13 43.21556 -78.40792 28512 ft 474 kts 120°
2026-05-06 01:13 43.20231 -78.36625 28871 ft 477 kts 121°
2026-05-06 01:13 43.18718 -78.32603 29197 ft 473 kts 129°
2026-05-06 01:14 43.14788 -78.25485 29846 ft 469 kts 137°
2026-05-06 01:14 43.12711 -78.22020 30136 ft 472 kts 137°
2026-05-06 01:14 43.10649 -78.18584 30401 ft 475 kts 137°
2026-05-06 01:15 43.08548 -78.15085 30660 ft 477 kts 137°
2026-05-06 01:15 43.06439 -78.11565 30914 ft 480 kts 137°
2026-05-06 01:15 43.04320 -78.08025 31164 ft 482 kts 137°
2026-05-06 01:15 43.02193 -78.04472 31410 ft 484 kts 137°
2026-05-06 01:16 43.00057 -78.00906 31694 ft 485 kts 137°
2026-05-06 01:16 42.97919 -77.97340 31993 ft 485 kts 136°
2026-05-06 01:16 42.95789 -77.93762 32310 ft 487 kts 134°
2026-05-06 01:16 42.93923 -77.89881 32658 ft 494 kts 124°
2026-05-06 01:17 42.92477 -77.85587 32976 ft 501 kts 114°
2026-05-06 01:17 42.91517 -77.80987 33314 ft 506 kts 104°
2026-05-06 01:17 42.91083 -77.76223 33638 ft 509 kts 94°
2026-05-06 01:17 42.90980 -77.71391 33965 ft 510 kts 93°
2026-05-06 01:18 42.90872 -77.66559 34250 ft 510 kts 93°
2026-05-06 01:18 42.90755 -77.61712 34507 ft 510 kts 93°
2026-05-06 01:18 42.90632 -77.56877 34743 ft 511 kts 93°
2026-05-06 01:18 42.90505 -77.52036 35012 ft 511 kts 93°
2026-05-06 01:19 42.90374 -77.47190 35261 ft 511 kts 92°
2026-05-06 01:19 42.90245 -77.42404 35488 ft 512 kts 92°
2026-05-06 01:19 42.90112 -77.37537 35714 ft 513 kts 92°
2026-05-06 01:19 42.89980 -77.32674 35946 ft 513 kts 92°
2026-05-06 01:20 42.89847 -77.27806 36155 ft 514 kts 92°
2026-05-06 01:20 42.89712 -77.22943 36364 ft 515 kts 92°
2026-05-06 01:20 42.89572 -77.18057 36597 ft 514 kts 91°
2026-05-06 01:20 42.89430 -77.13184 36824 ft 514 kts 91°
2026-05-06 01:21 42.89286 -77.08309 37040 ft 515 kts 91°
2026-05-06 01:21 42.89139 -77.03431 37232 ft 515 kts 91°
2026-05-06 01:21 42.88989 -76.98542 37434 ft 516 kts 91°
2026-05-06 01:21 42.88835 -76.93653 37615 ft 516 kts 91°
2026-05-06 01:22 42.88677 -76.88762 37803 ft 517 kts 91°
2026-05-06 01:22 42.88517 -76.83867 37986 ft 517 kts 91°
2026-05-06 01:22 42.88357 -76.78988 38206 ft 516 kts 91°
2026-05-06 01:22 42.88196 -76.74100 38401 ft 516 kts 91°
2026-05-06 01:23 42.88034 -76.69188 38572 ft 516 kts 90°
2026-05-06 01:23 42.87873 -76.64299 38722 ft 516 kts 91°
2026-05-06 01:23 42.87707 -76.59409 38856 ft 516 kts 91°
2026-05-06 01:23 42.87538 -76.54533 38895 ft 516 kts 91°
2026-05-06 01:24 42.87186 -76.44773 38893 ft 514 kts 91°
2026-05-06 01:24 42.86834 -76.35062 38882 ft 513 kts 91°
2026-05-06 01:25 42.86476 -76.25403 38885 ft 513 kts 91°
2026-05-06 01:25 42.86101 -76.15690 38879 ft 513 kts 91°
2026-05-06 01:26 42.85722 -76.05967 38879 ft 513 kts 91°
2026-05-06 01:26 42.85338 -75.96261 38888 ft 513 kts 91°
2026-05-06 01:27 42.84949 -75.86548 38907 ft 513 kts 91°
2026-05-06 01:27 42.84547 -75.76838 38906 ft 512 kts 91°
2026-05-06 01:28 42.84135 -75.67157 38929 ft 511 kts 91°
2026-05-06 01:28 42.83719 -75.57554 38932 ft 510 kts 91°
2026-05-06 01:29 42.83291 -75.47897 38932 ft 510 kts 91°
2026-05-06 01:29 42.82865 -75.38253 38916 ft 509 kts 91°
2026-05-06 01:30 42.82428 -75.28633 38904 ft 508 kts 92°
2026-05-06 01:30 42.81984 -75.19025 38892 ft 507 kts 92°
2026-05-06 01:31 42.81527 -75.09438 38873 ft 507 kts 92°
2026-05-06 01:31 42.81065 -74.99868 38862 ft 506 kts 92°
2026-05-06 01:32 42.80600 -74.90287 38865 ft 506 kts 92°
2026-05-06 01:32 42.80125 -74.80782 38867 ft 505 kts 92°
2026-05-06 01:33 42.79641 -74.71241 38864 ft 505 kts 92°
2026-05-06 01:33 42.79150 -74.61701 38869 ft 505 kts 92°
2026-05-06 01:34 42.78655 -74.52164 38863 ft 505 kts 92°
2026-05-06 01:34 42.78149 -74.42629 38853 ft 506 kts 92°
2026-05-06 01:35 42.77630 -74.33062 38844 ft 506 kts 92°
2026-05-06 01:35 42.77103 -74.23572 38849 ft 506 kts 92°
2026-05-06 01:36 42.76566 -74.14018 38832 ft 506 kts 92°
2026-05-06 01:36 42.76300 -74.09192 38610 ft 516 kts 92°
2026-05-06 01:36 42.76027 -74.04287 38354 ft 522 kts 92°
2026-05-06 01:37 42.75750 -73.99351 38062 ft 523 kts 93°
2026-05-06 01:37 42.75562 -73.96083 37873 ft 520 kts 93°
2026-05-06 01:37 42.75276 -73.91192 37592 ft 517 kts 93°
2026-05-06 01:37 42.74990 -73.86328 37313 ft 514 kts 93°
2026-05-06 01:38 42.74706 -73.81478 37038 ft 511 kts 93°
2026-05-06 01:38 42.74509 -73.76663 36769 ft 508 kts 91°
2026-05-06 01:38 42.74432 -73.71872 36501 ft 505 kts 89°
2026-05-06 01:38 42.74438 -73.67114 36237 ft 503 kts 88°
2026-05-06 01:39 42.74475 -73.62371 35950 ft 499 kts 89°
2026-05-06 01:39 42.74511 -73.57669 35690 ft 495 kts 89°
2026-05-06 01:39 42.74523 -73.53005 35191 ft 491 kts 90°
2026-05-06 01:39 42.74501 -73.48378 34663 ft 488 kts 91°
2026-05-06 01:40 42.74451 -73.43776 34125 ft 485 kts 92°
2026-05-06 01:40 42.74393 -73.39199 33543 ft 483 kts 92°
2026-05-06 01:40 42.74335 -73.34713 33034 ft 478 kts 92°
2026-05-06 01:40 42.74281 -73.30212 32504 ft 474 kts 92°
2026-05-06 01:41 42.74230 -73.25760 31976 ft 470 kts 92°
2026-05-06 01:41 42.74181 -73.21316 31452 ft 466 kts 92°
2026-05-06 01:41 42.74133 -73.16917 30946 ft 463 kts 92°
2026-05-06 01:41 42.74077 -73.12547 30443 ft 460 kts 95°
2026-05-06 01:42 42.73717 -73.08258 29944 ft 454 kts 102°
2026-05-06 01:42 42.73231 -73.04041 29423 ft 450 kts 102°
2026-05-06 01:42 42.72751 -72.99850 28960 ft 445 kts 102°
2026-05-06 01:42 42.72274 -72.95706 28499 ft 440 kts 102°
2026-05-06 01:43 42.71799 -72.91623 28056 ft 435 kts 102°
2026-05-06 01:43 42.71332 -72.87641 27618 ft 430 kts 102°
2026-05-06 01:43 42.70863 -72.83624 27174 ft 426 kts 102°
2026-05-06 01:43 42.70399 -72.79669 26726 ft 422 kts 102°
2026-05-06 01:44 42.69935 -72.75733 26285 ft 419 kts 102°
2026-05-06 01:44 42.69473 -72.71832 25848 ft 416 kts 102°
2026-05-06 01:44 42.69012 -72.67965 25396 ft 413 kts 103°
2026-05-06 01:44 42.68552 -72.64120 24948 ft 411 kts 103°
2026-05-06 01:45 42.68094 -72.60297 24473 ft 409 kts 103°
2026-05-06 01:45 42.67637 -72.56486 24008 ft 408 kts 102°
2026-05-06 01:45 42.67178 -72.52682 23537 ft 406 kts 102°
2026-05-06 01:45 42.66719 -72.48889 23002 ft 405 kts 103°
2026-05-06 01:46 42.66264 -72.45185 22551 ft 402 kts 103°
2026-05-06 01:46 42.65807 -72.41453 22064 ft 399 kts 103°
2026-05-06 01:46 42.65352 -72.37754 21617 ft 396 kts 103°
2026-05-06 01:46 42.64898 -72.34064 21171 ft 394 kts 103°
2026-05-06 01:47 42.64446 -72.30398 20745 ft 391 kts 103°
2026-05-06 01:47 42.64018 -72.26800 20507 ft 383 kts 102°
2026-05-06 01:47 42.63606 -72.23243 20113 ft 379 kts 102°
2026-05-06 01:47 42.63199 -72.19719 19745 ft 376 kts 102°
2026-05-06 01:48 42.62794 -72.16226 19324 ft 374 kts 102°
2026-05-06 01:48 42.62387 -72.12747 18942 ft 371 kts 102°
2026-05-06 01:48 42.61982 -72.09300 18572 ft 369 kts 102°
2026-05-06 01:48 42.61582 -72.05876 18208 ft 367 kts 102°
2026-05-06 01:49 42.61184 -72.02487 17720 ft 362 kts 102°
2026-05-06 01:49 42.60778 -71.99119 16951 ft 358 kts 103°
2026-05-06 01:49 42.60328 -71.95454 16467 ft 354 kts 103°
2026-05-06 01:49 42.59917 -71.92175 16069 ft 352 kts 103°
2026-05-06 01:50 42.59504 -71.88913 15658 ft 349 kts 103°
2026-05-06 01:50 42.59094 -71.85678 15274 ft 347 kts 103°
2026-05-06 01:50 42.58688 -71.82456 14878 ft 346 kts 103°
2026-05-06 01:50 42.58254 -71.79259 14489 ft 345 kts 104°
2026-05-06 01:51 42.57762 -71.76051 14089 ft 346 kts 105°
2026-05-06 01:51 42.57252 -71.72903 13694 ft 346 kts 105°
2026-05-06 01:51 42.56729 -71.69727 13296 ft 344 kts 106°
2026-05-06 01:51 42.56205 -71.66551 12899 ft 342 kts 106°
2026-05-06 01:52 42.55692 -71.63400 12488 ft 342 kts 106°
2026-05-06 01:52 42.55188 -71.60252 12103 ft 340 kts 105°
2026-05-06 01:52 42.54659 -71.57144 11767 ft 337 kts 108°
2026-05-06 01:52 42.54057 -71.54088 11419 ft 333 kts 110°
2026-05-06 01:53 42.53421 -71.51089 11101 ft 329 kts 110°
2026-05-06 01:53 42.52779 -71.48125 10786 ft 327 kts 110°
2026-05-06 01:53 42.52153 -71.45214 10476 ft 325 kts 110°
2026-05-06 01:53 42.51519 -71.42245 10218 ft 321 kts 110°
2026-05-06 01:54 42.50906 -71.39328 10110 ft 321 kts 110°
2026-05-06 01:54 42.50302 -71.36432 9979 ft 320 kts 110°
2026-05-06 01:54 42.49708 -71.33546 9502 ft 324 kts 110°
2026-05-06 01:54 42.49122 -71.30612 9120 ft 321 kts 109°
2026-05-06 01:55 42.48545 -71.27689 8728 ft 319 kts 109°
2026-05-06 01:55 42.47970 -71.24774 8300 ft 318 kts 110°
2026-05-06 01:55 42.47412 -71.21954 8059 ft 299 kts 110°
2026-05-06 01:55 42.46899 -71.19333 7924 ft 277 kts 109°
2026-05-06 01:56 42.46651 -71.16785 7601 ft 272 kts 94°
2026-05-06 01:56 42.46865 -71.14217 7310 ft 274 kts 78°
2026-05-06 01:56 42.47518 -71.11812 7033 ft 273 kts 63°
2026-05-06 01:56 42.48373 -71.09511 6744 ft 272 kts 63°
2026-05-06 01:57 42.49394 -71.07406 6448 ft 270 kts 46°
2026-05-06 01:57 42.50799 -71.05756 6118 ft 266 kts 27°
2026-05-06 01:57 42.52439 -71.04701 5803 ft 258 kts 13°
2026-05-06 01:57 42.54129 -71.03880 5506 ft 257 kts 13°
2026-05-06 01:58 42.55813 -71.03054 5202 ft 257 kts 13°
2026-05-06 01:58 42.57490 -71.02214 4933 ft 256 kts 13°
2026-05-06 01:58 42.59143 -71.01327 4624 ft 257 kts 22°
2026-05-06 01:58 42.60501 -70.99721 4293 ft 264 kts 56°
2026-05-06 01:59 42.61117 -70.97404 4038 ft 258 kts 91°
2026-05-06 01:59 42.60810 -70.95091 3971 ft 246 kts 125°
2026-05-06 01:59 42.59742 -70.93437 3993 ft 225 kts 159°
2026-05-06 01:59 42.58339 -70.92656 3968 ft 217 kts 169°
2026-05-06 02:00 42.56949 -70.91867 3981 ft 211 kts 169°
2026-05-06 02:00 42.55582 -70.91493 3728 ft 195 kts 191°
2026-05-06 02:00 42.54323 -70.91846 3472 ft 176 kts 207°
2026-05-06 02:00 42.53211 -70.92386 3254 ft 165 kts 208°
2026-05-06 02:01 42.52172 -70.92892 3090 ft 156 kts 208°
2026-05-06 02:01 42.51162 -70.93385 2871 ft 152 kts 208°
2026-05-06 02:01 42.50188 -70.93859 2673 ft 147 kts 208°
2026-05-06 02:01 42.49242 -70.94319 2476 ft 141 kts 208°
2026-05-06 02:02 42.48331 -70.94762 2300 ft 137 kts 208°
2026-05-06 02:02 42.47436 -70.95198 2108 ft 136 kts 207°
2026-05-06 02:02 42.46540 -70.95635 1938 ft 137 kts 207°
2026-05-06 02:02 42.45644 -70.96070 1754 ft 136 kts 206°
2026-05-06 02:03 42.44770 -70.96493 1602 ft 130 kts 206°
2026-05-06 02:03 42.43935 -70.96898 1422 ft 125 kts 206°
2026-05-06 02:03 42.43112 -70.97299 1252 ft 126 kts 205°
2026-05-06 02:03 42.42294 -70.97696 1069 ft 124 kts 204°
2026-05-06 02:04 42.41478 -70.98091 895 ft 127 kts 203°
2026-05-06 02:04 42.40654 -70.98487 741 ft 124 kts 202°
2026-05-06 02:04 42.39847 -70.98882 584 ft 124 kts 202°
2026-05-06 02:04 42.39033 -70.99280 412 ft 123 kts 200°
2026-05-06 02:05 42.38222 -70.99676 245 ft 126 kts 202°
2026-05-06 02:05 42.37412 -71.00070 71 ft 121 kts 201°
2026-05-06 02:05 42.36668 -71.00435 26 ft 100 kts 200°
2026-05-06 02:05 42.36168 -71.00672 26 ft 51 kts 200°
2026-05-06 02:06 42.35985 -71.00809 27 ft 25 kts 229°
2026-05-06 02:06 42.35927 -71.00902 27 ft 19 kts 229°
2026-05-06 02:06 42.35859 -71.01011 28 ft 14 kts 235°
2026-05-06 02:06 42.35833 -71.01123 25 ft 11 kts 270°
2026-05-06 02:07 42.35845 -71.01241 25 ft 14 kts 278°
2026-05-06 02:07 42.35863 -71.01410 28 ft 15 kts 281°
2026-05-06 02:07 42.35876 -71.01497 28 ft 13 kts 281°
2026-05-06 02:07 42.35892 -71.01611 29 ft 12 kts 281°
2026-05-06 02:08 42.35906 -71.01730 27 ft 14 kts 281°
2026-05-06 02:08 42.35928 -71.01843 27 ft 11 kts 295°
2026-05-06 02:08 42.35970 -71.01935 27 ft 13 kts 301°
2026-05-06 02:08 42.36016 -71.02036 27 ft 12 kts 301°
2026-05-06 02:09 42.36056 -71.02129 26 ft 11 kts 300°
2026-05-06 02:09 42.36084 -71.02193 27 ft 6 kts 300°
2026-05-06 02:09 42.36102 -71.02236 26 ft 5 kts 301°
2026-05-06 02:09 42.36124 -71.02267 25 ft 4 kts 323°
2026-05-06 02:10 42.36148 -71.02277 29 ft 3 kts 353°
2026-05-06 02:10 42.36177 -71.02274 28 ft 4 kts 28°
2026-05-06 02:10 42.36177 -71.02235 25 ft 4 kts 111°
2026-05-06 02:10 42.36171 -71.02210 29 ft 2 kts 106°
2026-05-06 02:11 42.36169 -71.02197 28 ft 1 kts 107°
2026-05-06 02:11 42.36168 -71.02194 27 ft 0 kts 107°
2026-05-06 02:11 42.36167 -71.02189 27 ft 1 kts 107°